Location: ????????
(55.0559°N, 39.1270°E)
Time: 18:08:39
(UTC+00:00)

NOSS 2-3 (E) - Pass Details

Date: 15 November 2025
Orbit: 492 x 1706 km, 63.3° (Epoch: 24 April)

Event Time Altitude Azimuth Distance (km) Brightness Sun altitude
Exits shadow 04:05:48 - 310° (NW) 2,217 5.8 -7.2°
Reaches altitude 10° 04:06:12 10° 311° (NW) 2,056 5.6 -7.1°
Maximum altitude 04:10:50 70° 36° (NE) 828 4.3 -6.5°
Drops below altitude 10° 04:17:02 10° 120° (ESE) 2,731 8.7 -5.7°
Sets 04:20:03 0° 123° (ESE) 3,881 10.1 -5.3°
